DW0156 Weather Reports


time (UTC)temp
C
wind
direction
speed
KPH
gust
KPH
rain 1hr
cm
rain 24hr
cm
rain mn
cm
humidity
%
barometer
mb
20260903165042 12 263 0.0 1.6 0.00 0.00 0.00 78 1018.5
20260903164533 12 263 0.0 0.0 0.00 0.00 0.00 78 1018.5
20260903164043 12 263 0.0 0.0 0.00 0.00 0.00 78 1019.0
20260903163542 12 263 0.0 0.0 0.00 0.00 0.00 78 1019.0
20260903163046 12 263 0.0 0.0 0.00 0.00 0.00 78 1019.0
20260903162531 12 263 0.0 0.0 0.00 0.00 0.00 78 1018.9
20260903162013 12 263 0.0 0.0 0.00 0.00 0.00 78 1018.9
20260903161500 12 263 0.0 0.0 0.00 0.00 0.00 78 1018.9
20260903160940 12 263 1.6 4.8 0.00 0.00 0.00 78 1018.8
20260903160433 12 263 1.6 4.8 0.00 0.00 0.00 78 1018.8
20260903155310 11 263 0.0 3.2 0.00 0.00 0.00 78 1019.1
20260903154138 11 263 0.0 0.0 0.00 0.00 0.00 78 1019.3
20260903153635 11 263 0.0 0.0 0.00 0.00 0.00 78 1019.3
20260903153119 11 263 0.0 0.0 0.00 0.00 0.00 78 1019.3
20260903152616 12 263 0.0 0.0 0.00 0.00 0.00 77 1019.5
20260903152117 12 263 0.0 0.0 0.00 0.00 0.00 77 1019.5
20260903151618 12 263 0.0 0.0 0.00 0.00 0.00 77 1019.5
20260903145810 12 263 0.0 0.0 0.00 0.00 0.00 77 1019.9
20260903145305 12 263 0.0 0.0 0.00 0.00 0.00 77 1019.9
20260903144745 12 263 0.0 0.0 0.00 0.00 0.00 77 1019.9
20260903143643 12 263 0.0 0.0 0.00 0.00 0.00 77 1020.1
20260903142505 12 263 0.0 0.0 0.00 0.00 0.00 77 1020.3
20260903142010 12 263 0.0 0.0 0.00 0.00 0.00 76 1020.3
20260903140231 12 263 0.0 0.0 0.00 0.00 0.00 75 1020.4
20260903135728 12 263 0.0 0.0 0.00 0.00 0.00 75 1020.6
20260903135224 12 263 0.0 0.0 0.00 0.00 0.00 75 1020.6
20260903134734 12 263 0.0 0.0 0.00 0.00 0.00 75 1020.6
20260903134243 12 263 0.0 0.0 0.00 0.00 0.00 75 1020.7
20260903133732 12 263 0.0 0.0 0.00 0.00 0.00 74 1020.7
20260903133239 12 263 0.0 0.0 0.00 0.00 0.00 74 1020.7
20260903132742 13 263 0.0 0.0 0.00 0.00 0.00 74 1020.7
20260903132238 13 263 0.0 0.0 0.00 0.00 0.00 74 1020.7
20260903131743 13 263 0.0 0.0 0.00 0.00 0.00 74 1020.7
20260903130630 13 263 0.0 0.0 0.00 0.00 0.00 74 1020.8
20260903125516 13 263 0.0 0.0 0.00 0.00 0.00 74 1020.9
20260903125019 13 263 0.0 1.6 0.00 0.00 0.00 74 1020.9
20260903124526 13 263 0.0 0.0 0.00 0.00 0.00 74 1020.9
20260903123406 13 263 1.6 6.4 0.00 0.00 0.00 74 1020.9
20260903122249 13 263 0.0 4.8 0.00 0.00 0.00 74 1021.2
20260903121749 13 263 0.0 0.0 0.00 0.00 0.00 74 1021.2
20260903121229 13 263 0.0 0.0 0.00 0.00 0.00 74 1021.2
20260903120737 13 263 0.0 0.0 0.00 0.00 0.00 74 1021.2
20260903120243 13 263 0.0 0.0 0.00 0.00 0.00 74 1021.2
20260903115727 13 263 0.0 1.6 0.00 0.00 0.00 73 1021.2
20260903115219 13 263 0.0 0.0 0.00 0.00 0.00 73 1021.2
20260903114722 13 263 0.0 0.0 0.00 0.00 0.00 73 1021.2
20260903112954 13 263 0.0 0.0 0.00 0.00 0.00 73 1021.2
20260903111851 13 263 0.0 0.0 0.00 0.00 0.00 72 1021.1
20260903111340 13 263 0.0 0.0 0.00 0.00 0.00 72 1021.0
20260903110849 13 263 0.0 0.0 0.00 0.00 0.00 72 1021.0
20260903110342 13 263 0.0 0.0 0.00 0.00 0.00 72 1021.0
20260903105845 13 263 0.0 0.0 0.00 0.00 0.00 72 1020.9
20260903104735 13 263 0.0 0.0 0.00 0.00 0.00 72 1020.9
20260903104244 13 263 0.0 3.2 0.00 0.00 0.00 71 1020.7
20260903103123 13 263 0.0 0.0 0.00 0.00 0.00 71 1020.7
20260903102610 13 263 0.0 0.0 0.00 0.00 0.00 71 1020.6
20260903102051 14 263 0.0 0.0 0.00 0.00 0.00 70 1020.6
20260903101557 14 263 0.0 0.0 0.00 0.00 0.00 70 1020.6
20260903101050 14 263 0.0 0.0 0.00 0.00 0.00 69 1020.4
20260903100540 14 263 0.0 0.0 0.00 0.00 0.00 69 1020.4
20260903100044 14 263 0.0 1.6 0.00 0.00 0.00 69 1020.4
20260903094914 14 263 0.0 6.4 0.00 0.00 0.00 68 1020.2
20260903094354 14 263 1.6 6.4 0.00 0.00 0.00 68 1020.3
20260903093838 14 263 1.6 8.0 0.00 0.00 0.00 68 1020.3
20260903093327 14 263 3.2 8.0 0.00 0.00 0.00 67 1020.3
20260903092822 14 263 3.2 9.7 0.00 0.00 0.00 67 1020.2
20260903092314 14 263 3.2 9.7 0.00 0.00 0.00 67 1020.2
20260903091202 14 263 3.2 9.7 0.00 0.00 0.00 66 1019.9
20260903090706 15 263 3.2 6.4 0.00 0.00 0.00 67 1019.9
20260903090147 15 263 1.6 6.4 0.00 0.00 0.00 67 1019.9
20260903085016 15 263 1.6 8.0 0.00 0.00 0.00 67 1020.0
20260903084500 15 263 3.2 8.0 0.00 0.00 0.00 67 1020.0
20260903083953 15 263 3.2 8.0 0.00 0.00 0.00 67 1019.7
20260903083451 15 263 1.6 8.0 0.00 0.00 0.00 66 1019.7
20260903082932 15 263 3.2 8.0 0.00 0.00 0.00 66 1019.7
20260903081808 15 263 3.2 8.0 0.00 0.00 0.00 65 1019.6
20260903081305 15 263 3.2 8.0 0.00 0.00 0.00 65 1019.5
20260903080753 15 263 3.2 8.0 0.00 0.00 0.00 65 1019.5
20260903080251 15 263 3.2 6.4 0.00 0.00 0.00 64 1019.5
20260903075756 15 263 3.2 8.0 0.00 0.00 0.00 64 1019.4
20260903075306 15 263 3.2 8.0 0.00 0.00 0.00 63 1019.4
20260903074803 15 263 4.8 14.5 0.00 0.00 0.00 63 1019.4
20260903074251 15 263 4.8 14.5 0.00 0.00 0.00 63 1019.2
20260903073754 15 263 4.8 14.5 0.00 0.00 0.00 62 1019.2
20260903073236 15 263 4.8 14.5 0.00 0.00 0.00 62 1019.2
20260903072726 15 263 3.2 9.7 0.00 0.00 0.00 62 1019.1
20260903071624 15 263 4.8 14.5 0.00 0.00 0.00 62 1019.1
20260903071116 15 263 4.8 14.5 0.00 0.00 0.00 62 1019.2
20260903070623 15 263 6.4 14.5 0.00 0.00 0.00 61 1019.2
20260903070113 15 263 6.4 19.3 0.00 0.00 0.00 61 1019.2
20260903065622 15 263 4.8 19.3 0.00 0.00 0.00 62 1019.1
20260903064521 15 263 8.0 19.3 0.00 0.00 0.00 62 1019.1
20260903063411 15 263 6.4 19.3 0.00 0.00 0.00 62 1019.1
20260903062226 16 263 6.4 19.3 0.00 0.00 0.00 63 1019.1
20260903061058 16 263 6.4 17.7 0.00 0.00 0.00 65 1019.1
20260903060601 16 263 6.4 17.7 0.00 0.00 0.00 64 1019.1
20260903060056 16 263 4.8 11.3 0.00 0.00 0.00 64 1019.1
20260903055554 16 263 4.8 11.3 0.00 0.00 0.00 64 1019.1
20260903055100 16 263 4.8 16.1 0.00 0.00 0.00 64 1019.1
20260903054541 16 263 4.8 16.1 0.00 0.00 0.00 64 1019.1
20260903054030 16 263 4.8 16.1 0.00 0.00 0.00 64 1019.0
20260903053533 16 263 6.4 16.1 0.00 0.00 0.00 64 1019.0
20260903052403 16 263 6.4 16.1 0.00 0.00 0.00 68 1019.0
20260903051901 16 263 4.8 14.5 0.00 0.00 0.00 68 1019.0
20260903051350 16 263 4.8 17.7 0.00 0.00 0.00 69 1018.7
20260903050854 16 263 6.4 17.7 0.00 0.00 0.00 69 1018.7
20260903045712 16 263 6.4 20.9 0.00 0.00 0.00 69 1018.6
20260903045152 16 263 9.7 20.9 0.00 0.00 0.00 68 1018.6
20260903044657 16 263 8.0 19.3 0.00 0.00 0.00 67 1018.6
20260903044203 16 263 8.0 17.7 0.00 0.00 0.00 69 1018.5
20260903043709 16 263 8.0 17.7 0.00 0.00 0.00 68 1018.5
20260903043158 16 263 6.4 19.3 0.00 0.00 0.00 68 1018.5
20260903042041 16 263 8.0 19.3 0.00 0.00 0.00 71 1018.5
20260903041546 16 263 6.4 19.3 0.00 0.00 0.00 71 1018.5
20260903041034 16 263 6.4 14.5 0.00 0.00 0.00 73 1018.5
20260903040543 16 263 6.4 14.5 0.00 0.00 0.00 73 1018.5
20260903040036 16 263 6.4 16.1 0.00 0.00 0.00 74 1018.5
20260903035521 16 263 6.4 16.1 0.00 0.00 0.00 73 1018.5
20260903035008 16 263 8.0 19.3 0.00 0.00 0.00 73 1018.5
20260903034452 16 263 9.7 19.3 0.00 0.00 0.00 73 1018.5
20260903033948 16 263 9.7 20.9 0.00 0.00 0.00 72 1018.5
20260903033448 16 263 6.4 20.9 0.00 0.00 0.00 72 1018.5
20260903032944 16 263 8.0 20.9 0.00 0.00 0.00 72 1018.5
20260903032429 16 263 6.4 20.9 0.00 0.00 0.00 73 1018.5
20260903031912 16 263 4.8 14.5 0.00 0.00 0.00 73 1018.5
20260903025529 16 263 6.4 16.1 0.00 0.00 0.00 78 1018.5
20260903025036 16 263 4.8 14.5 0.00 0.00 0.00 78 1018.5
20260903023910 15 263 6.4 14.5 0.00 0.00 0.00 80 1018.6
20260903023349 15 263 6.4 14.5 0.00 0.00 0.00 81 1018.6
20260903022841 15 263 6.4 14.5 0.00 0.00 0.00 81 1018.6
20260903022351 15 263 6.4 14.5 0.00 0.00 0.00 81 1018.6
20260903021847 15 263 6.4 14.5 0.00 0.00 0.00 83 1018.6
20260903021354 15 263 6.4 14.5 0.00 0.00 0.00 83 1018.6
20260903020246 15 263 6.4 14.5 0.00 0.00 0.00 86 1018.6
20260903015727 15 263 4.8 14.5 0.00 0.00 0.00 87 1018.5
20260903014620 15 263 6.4 16.1 0.00 0.00 0.00 88 1018.5
20260903013449 14 263 6.4 19.3 0.00 0.00 0.00 89 1018.5
20260903012952 14 263 8.0 19.3 0.00 0.00 0.00 89 1018.5
20260903011829 14 263 8.0 19.3 0.00 0.00 0.00 88 1018.4
20260903011331 14 263 6.4 20.9 0.00 0.00 0.00 89 1018.4
20260903010827 14 263 9.7 20.9 0.00 0.00 0.00 88 1018.4
20260903010324 14 263 9.7 20.9 0.00 0.00 0.00 87 1018.4
20260903005811 14 263 9.7 20.9 0.00 0.00 0.00 87 1018.2
20260903004638 15 263 9.7 24.1 0.00 0.00 0.00 85 1018.2
20260903004145 15 263 9.7 24.1 0.00 0.00 0.00 84 1018.1
20260903003643 15 263 9.7 24.1 0.00 0.00 0.00 84 1018.1
20260903003132 15 263 9.7 22.5 0.00 0.00 0.00 84 1018.1
20260903002003 15 263 8.0 22.5 0.00 0.00 0.00 84 1018.1
20260903001441 15 263 8.0 22.5 0.00 0.00 0.00 84 1018.1
20260903000947 15 263 8.0 20.9 0.00 0.00 0.00 85 1018.0
20260903000436 15 263 8.0 17.7 0.00 0.00 0.00 85 1018.0
20260902235940 15 263 8.0 27.4 0.00 0.00 0.00 85 1018.0
20260902235439 15 263 9.7 27.4 0.00 0.00 0.00 85 1018.0
20260902234932 14 263 9.7 27.4 0.00 0.00 0.00 85 1018.0
20260902233815 15 263 4.8 20.9 0.00 0.00 0.00 85 1017.9
20260902233325 14 263 4.8 20.9 0.00 0.00 0.00 86 1017.9
20260902232817 14 263 4.8 20.9 0.00 0.00 0.00 86 1018.0
20260902232259 14 263 6.4 20.9 0.00 0.00 0.00 86 1018.0
20260902231745 14 263 8.0 19.3 0.00 0.00 0.00 86 1018.0
20260902231235 14 263 8.0 19.3 0.00 0.00 0.00 86 1017.6
20260902230731 14 263 8.0 19.3 0.00 0.00 0.00 86 1017.6
20260902230216 14 263 6.4 19.3 0.00 0.00 0.00 86 1017.6
20260902225715 14 263 4.8 19.3 0.00 0.00 0.00 87 1017.5
20260902225219 14 263 4.8 19.3 0.00 0.00 0.00 87 1017.5
20260902224702 14 263 4.8 17.7 0.00 0.00 0.00 87 1017.5
20260902224147 13 263 3.2 16.1 0.00 0.00 0.00 87 1017.1
20260902223632 13 263 4.8 14.5 0.00 0.00 0.00 88 1017.1
20260902222449 13 263 1.6 9.7 0.00 0.00 0.00 88 1017.0
20260902221935 13 263 3.2 12.9 0.00 0.00 0.00 88 1017.0
20260902221431 13 263 1.6 12.9 0.00 0.00 0.00 88 1017.0
20260902220936 13 263 1.6 16.1 0.00 0.00 0.00 87 1016.8
20260902220438 13 263 3.2 16.1 0.00 0.00 0.00 87 1016.8
20260902215943 13 263 3.2 16.1 0.00 0.00 0.00 87 1016.8
20260902215451 13 263 3.2 16.1 0.00 0.00 0.00 87 1016.6
20260902214952 13 263 3.2 14.5 0.00 0.00 0.00 87 1016.6
20260902214440 13 263 3.2 14.5 0.00 0.00 0.00 87 1016.6
20260902213927 13 263 3.2 11.3 0.00 0.00 0.00 87 1016.5
20260902213436 13 263 3.2 14.5 0.00 0.00 0.00 87 1016.5
20260902212945 13 263 3.2 14.5 0.00 0.00 0.00 87 1016.5
20260902212444 13 263 4.8 14.5 0.00 0.00 0.00 87 1016.4
20260902211939 13 263 3.2 14.5 0.00 0.00 0.00 87 1016.4
20260902211448 13 263 3.2 8.0 0.00 0.00 0.00 86 1016.4
20260902210937 13 263 1.6 12.9 0.00 0.00 0.00 86 1016.1
20260902210439 13 263 1.6 12.9 0.00 0.00 0.00 86 1016.1
20260902205938 13 263 3.2 14.5 0.00 0.00 0.00 86 1016.1
20260902205430 13 263 3.2 14.5 0.00 0.00 0.00 86 1016.0
20260902204915 13 263 3.2 14.5 0.00 0.00 0.00 86 1016.0
20260902204411 13 263 1.6 14.5 0.00 0.00 0.00 85 1016.0
20260902203916 13 263 1.6 9.7 0.00 0.00 0.00 85 1015.9
20260902202747 13 263 1.6 14.5 0.00 0.00 0.00 85 1015.8
20260902202238 13 263 3.2 16.1 0.00 0.00 0.00 85 1015.8
20260902201748 13 263 3.2 16.1 0.00 0.00 0.00 85 1015.8
20260902195950 13 263 4.8 17.7 0.00 0.00 0.00 84 1015.6
20260902195432 13 263 4.8 17.7 0.00 0.00 0.00 84 1015.4
20260902194920 13 263 4.8 17.7 0.00 0.00 0.00 84 1015.4
20260902194402 13 263 4.8 17.7 0.00 0.00 0.00 84 1015.4
20260902193300 13 263 4.8 16.1 0.00 0.00 0.00 84 1015.4
20260902192142 13 263 4.8 16.1 0.00 0.00 0.00 83 1015.3
20260902191629 13 263 4.8 20.9 0.00 0.00 0.00 83 1015.3
20260902190506 13 263 4.8 20.9 0.00 0.00 0.00 83 1015.0
20260902185956 13 263 6.4 20.9 0.00 0.00 0.00 83 1015.0
20260902185446 13 263 4.8 20.9 0.00 0.00 0.00 82 1014.9
20260902184949 13 263 3.2 20.9 0.00 0.00 0.00 82 1014.9
20260902184445 13 263 3.2 20.9 0.00 0.00 0.00 82 1014.9
20260902183937 13 263 4.8 20.9 0.00 0.00 0.00 82 1014.9
20260902183430 13 263 4.8 14.5 0.00 0.00 0.00 81 1014.9
20260902182918 13 263 3.2 12.9 0.00 0.00 0.00 81 1014.9
20260902182426 13 263 3.2 20.9 0.00 0.00 0.00 81 1014.9
20260902181926 13 263 4.8 20.9 0.00 0.00 0.00 81 1014.9
20260902181421 13 263 6.4 20.9 0.00 0.00 0.00 81 1014.9
20260902180232 13 263 3.2 20.9 0.00 0.00 0.00 80 1014.9
20260902175717 13 263 4.8 19.3 0.00 0.00 0.00 80 1014.9
20260902175219 13 263 6.4 19.3 0.00 0.00 0.00 80 1014.9
20260902174716 13 263 4.8 17.7 0.00 0.00 0.00 79 1014.9
20260902173552 13 263 3.2 14.5 0.00 0.00 0.00 79 1015.0
20260902173057 13 263 4.8 14.5 0.00 0.00 0.00 78 1015.0
20260902172540 13 263 4.8 19.3 0.00 0.00 0.00 78 1015.1
20260902172039 13 263 3.2 19.3 0.00 0.00 0.00 78 1015.1
20260902171532 13 263 4.8 19.3 0.00 0.00 0.00 77 1015.1
20260902171014 13 263 4.8 19.3 0.00 0.00 0.00 77 1015.2
20260902170502 13 263 3.2 14.5 0.00 0.00 0.00 77 1015.2
20260902170006 13 263 3.2 14.5 0.00 0.00 0.00 76 1015.2